DMSP 5D-2 F13 DEB, 40410

Orbit data source: Space-Track

DMSP 5D-2 F13 DEB, 40410 is space debris in SSO originally from a launch on Fri, 24 Mar 1995 UTC launched from the Air Force Western Test Range (AFWTR). Debris objects in space refer to the collection of defunct objects orbiting the Earth. Examples of debris include non-operational satellites, rocket bodies, and fragments generated from explosions, collisions, or faulty payload assembly.

Loading next visibility...
Identifier
40410, 1995-015X
Orbit
SSO
Country
Flag of USUS
Related business
Manufacturer
Unknown
Mission
Spacecraft
Bus & Motor
Unknown
Mass
Unknown
Launch date (UTC)
1995-03-24 (31 years ago)
Launch vehicle
Unknown
Launch site
Air Force Western Test Range (AFWTR)
Object type
Payload
Rocket body
Debris
Shape & HBR
Unknown shape, 0.1 m
Radar Cross Section
Small (<0.1 m²)

Expand to show TLE details & history
Last TLE update: 2 days ago

TLE from 2 days ago
0 DMSP 5D-2 F13 DEB
1 40410U 95015X   25337.50179254  .00003520  00000-0  15216-2 0  9999
2 40410  98.8126 357.8166 0017954  74.4795 285.8365 14.24941734556791
Epoch: 2025-12-03T12:02Z
TLE epoch observation values (Epoch: 2025-12-03T12:02:34.875Z)
Latitude
0.00001°
Longitude
104.59961°
Altitude
808.106 km
Speed
7.451 km/s
True Right ascension
23h 51m 15s
True Declination
0° 00' 00"
Sunlit
Object was in daylight at epoch
Visualization orbit readout
Latitude
Unknown
Longitude
Unknown
Altitude
Unknown
Speed
Unknown
Apparent Right ascension
Unknown
Apparent Declination
Unknown
Sunlit
N/A
Visualization observer readout
Local Sidereal Time
07:15:51
Azimuth
Unknown
Elevation
Unknown
Doppler factor
Unknown
Orbital elements
Apogee altitude
818.744 km
Perigee altitude
792.947 km
Semi-major axis
7,183.983 km
Eccentricity
0.0018
Inclination
98.8126°
RAAN
357.8166°
Arg. of periapsis
74.4795°
True anomaly
285.63845°
Mean anomaly
285.8365°
Eccentric anomaly
285.73749°
Mean motion
3.56447 °/min
Orbital period
101 mins
BSTAR
0.0015216

Documentation

Showing up to 5 results
|